Volver al catálogo

CZ-6A DEB

ActivoSSO
NORAD 56613·DEBRIS·🇨🇳 China

Lanzado Nov 11, 2022 desde Taiyuan Satellite Launch Center

Loading…

Próximos Pases (próximas 24 horas)

TLE

ActualizadoSource: Space-Track

Época: Sep 14, 2026, 06:50 UTC

1 56613U 22151AEM 26257.28509875  .00000698  00000-0  33150-3 0  9996
2 56613  98.7996 282.3119 0003592  50.0619 310.0874 14.22706467180895

Sigue CZ-6A DEB en tiempo real con AllMySat

Download on the App Store